Watertown, NY

7:38 PM EST on November 20, 2019 (GMT -0500)
Watertown International

Weather History for KART - September, 2019

Change the Weather History Date:

Friday, September 27, 2019

  Actual Average Record
Temperature  
Mean Temperature 56 °F 55 °F  
Max Temperature 70 °F 66 °F 85 °F (2017)
Min Temperature 41 °F 45 °F 26 °F (1989)
Degree Days  
Heating Degree Days 9 10  
Month to date heating degree days 152 168  
Since 1 July heating degree days 181 240  
Cooling Degree Days 0 0  
Month to date cooling degree days 19 36  
Year to date cooling degree days 340 360  
Growing Degree Days 6 (Base 50)    
Moisture  
Dew Point 47 °F    
Average Humidity 72    
Maximum Humidity 100    
Minimum Humidity 44    
Precipitation  
Precipitation 0.00 in 0.13 in 2.13 in (2002)
Month to date precipitation 3.24 3.31  
Year to date precipitation 31.33 25.11  
Sea Level Pressure  
Sea Level Pressure 30.01 in    
Wind  
Wind Speed 6 mph (South)    
Max Wind Speed 15 mph    
Max Gust Speed 22 mph    
Visibility 10 miles    
Events      
T = Trace of Precipitation, MM = Missing Value Source: NWS Daily Summary

Daily Weather History Graph

Daily Weather History Graph

Search for Another Location

Airport or City:

Astronomy

Sep. 27, 2019 Rise Set
Actual Time 6:56 AM EDT 6:52 PM EDT
Civil Twilight 6:28 AM EDT 7:21 PM EDT
Nautical Twilight 5:54 AM EDT 7:54 PM EDT
Astronomical Twilight 5:20 AM EDT 8:29 PM EDT
Moon 5:09 AM EDT (9/27) 6:46 PM EDT (9/27)
Length of Visible Light 12h 53m
Length of Day
11h 55m
Waning Crescent, 2% of the Moon is Illuminated
Sep 27
Waning Crescent
Sep 28
New
Oct 5
First Quarter
Oct 13
Full
Oct 21
Last Quarter

Hourly Weather History & Observations

Time (EDT) Temp. Windchill Dew Point Humidity Pressure Visibility Wind Dir Wind Speed Gust Speed Precip Events Conditions
12:56 AM 54.0 °F - 46.9 °F 77% 29.96 in 10.0 mi West 8.1 mph - N/A   Clear
1:56 AM 46.9 °F - 44.1 °F 90% 29.99 in 10.0 mi South 3.5 mph - N/A   Clear
2:56 AM 46.0 °F 43.1 °F 44.1 °F 93% 29.99 in 10.0 mi SSE 5.8 mph - N/A   Clear
3:56 AM 45.0 °F 43.5 °F 43.0 °F 93% 29.99 in 10.0 mi ESE 3.5 mph - N/A   Clear
4:56 AM 43.0 °F - 42.1 °F 97% 30.02 in 10.0 mi Calm Calm - N/A   Partly Cloudy
5:56 AM 44.1 °F 42.5 °F 43.0 °F 96% 30.04 in 10.0 mi East 3.5 mph - N/A   Clear
6:56 AM 43.0 °F 41.3 °F 41.0 °F 93% 30.06 in 10.0 mi East 3.5 mph - N/A   Clear
7:56 AM 48.9 °F - 46.9 °F 93% 30.08 in 10.0 mi Calm Calm - N/A   Clear
8:56 AM 55.0 °F - 50.0 °F 83% 30.09 in 10.0 mi South 3.5 mph - N/A   Clear
9:56 AM 60.1 °F - 53.1 °F 78% 30.09 in 10.0 mi South 5.8 mph - N/A   Clear
10:56 AM 64.0 °F - 53.1 °F 67% 30.08 in 10.0 mi South 6.9 mph - N/A   Clear
11:56 AM 66.0 °F - 50.0 °F 56% 30.09 in 10.0 mi SW 10.4 mph - N/A   Clear
12:56 PM 68.0 °F - 48.9 °F 50% 30.07 in 10.0 mi SW 9.2 mph - N/A   Partly Cloudy
1:56 PM 68.0 °F - 46.9 °F 47% 30.03 in 10.0 mi SSW 11.5 mph - N/A   Partly Cloudy
2:56 PM 69.1 °F - 46.9 °F 45% 30.03 in 10.0 mi SW 12.7 mph - N/A   Clear
3:56 PM 70.0 °F - 48.0 °F 46% 30.00 in 10.0 mi SSW 6.9 mph - N/A   Clear
4:56 PM 69.1 °F - 48.0 °F 47% 29.98 in 10.0 mi South 8.1 mph - N/A   Clear
6:56 PM 62.1 °F - 50.0 °F 65% 29.96 in 10.0 mi SE 3.5 mph - N/A   Clear
7:56 PM 59.0 °F - 48.9 °F 69% 29.95 in 10.0 mi SE 3.5 mph - N/A   Clear
8:56 PM 63.0 °F - 48.0 °F 58% 29.95 in 10.0 mi South 5.8 mph - N/A   Clear
9:56 PM 66.0 °F - 48.9 °F 54% 29.94 in 10.0 mi South 9.2 mph 17.3 mph N/A   Mostly Cloudy
10:56 PM 66.9 °F - 48.9 °F 52% 29.93 in 10.0 mi South 8.1 mph - N/A   Clear
11:56 PM 66.9 °F - 50.0 °F 54% 29.91 in 10.0 mi South 8.1 mph 18.4 mph N/A   Mostly Cloudy